This is the latest recevied weather packets stored in our database for station/object N1YZ. If no packets are shown the sender has not sent any weather packets the latest 10 day(s).
| Time | Temp. | Humidity | Pressure | Rain* | Wind** | Luminosity | Snow |
|---|---|---|---|---|---|---|---|
| 1778029594 | 22.22° C | 68% | 1031.2 hPa | 0 mm | - | 0 W/m² | - |
| 1778029291 | 22.22° C | 68% | 1031 hPa | 0 mm | - | 0 W/m² | - |
| 1778028983 | 22.22° C | 67% | 1031.2 hPa | 0 mm | - | 0 W/m² | - |
| 1778028679 | 22.22° C | 66% | 1031.2 hPa | 0 mm | - | 0 W/m² | - |
| 1778028376 | 22.22° C | 66% | 1031.1 hPa | 0 mm | - | 0 W/m² | - |
| 1778028073 | 22.22° C | 67% | 1031.1 hPa | 0 mm | - | 0 W/m² | - |
| 1778027769 | 22.78° C | 66% | 1030.7 hPa | 0 mm | - | 1 W/m² | - |
| 1778027465 | 22.78° C | 65% | 1030.9 hPa | 0 mm | - | 1 W/m² | - |
| 1778027161 | 22.78° C | 66% | 1031.1 hPa | 0 mm | - | 3 W/m² | - |
| 1778026857 | 22.78° C | 65% | 1031 hPa | 0 mm | - | 3 W/m² | - |
| 1778026554 | 22.78° C | 65% | 1031.2 hPa | 0 mm | - | 3 W/m² | - |
| 1778026251 | 22.78° C | 65% | 1031.3 hPa | 0 mm | - | 9 W/m² | - |
| 1778025948 | 22.78° C | 65% | 1031.4 hPa | 0 mm | - | 4 W/m² | - |
| 1778025646 | 23.33° C | 65% | 1031.5 hPa | 0 mm | - | 6 W/m² | - |
| 1778025343 | 23.33° C | 63% | 1031.3 hPa | 0 mm | - | 11 W/m² | - |
| 1778025040 | 23.33° C | 63% | 1031.5 hPa | 0 mm | - | 13 W/m² | - |
| 1778024737 | 23.33° C | 63% | 1031.3 hPa | 0 mm | - | 14 W/m² | - |
| 1778024434 | 23.33° C | 64% | 1031.2 hPa | 0 mm | - | 12 W/m² | - |
| 1778024131 | 23.33° C | 64% | 1031.2 hPa | 0 mm | - | 17 W/m² | - |
| 1778023829 | 23.33° C | 63% | 1031.5 hPa | 0 mm | - | 20 W/m² | - |
| 1778023526 | 23.33° C | 62% | 1031.7 hPa | 0 mm | - | 16 W/m² | - |
| 1778023223 | 23.33° C | 63% | 1031.7 hPa | 0 mm | - | 15 W/m² | - |
| 1778022920 | 23.33° C | 63% | 1031.6 hPa | 0 mm | - | 29 W/m² | - |
| 1778022614 | 23.33° C | 62% | 1031.7 hPa | 0 mm | - | 38 W/m² | - |
| 1778022310 | 23.33° C | 64% | 1031.8 hPa | 0 mm | - | 36 W/m² | - |
* Rain latest hour (hover to see other rain measurements)
** Current wind speed in m/s (hover to see current wind gust speed)